User: anonymous   Login
Location: Dos Palmas
(32.4468°N, 116.8732°W)
Time: 20:57:34
(UTC+00:00)
Language:

AO-91 - Orbit

View from above orbital plane
View from above orbital plane
View from above satellite
View from above satellite

Ground track
Ground track

The orbit data is extracted from the following two-line orbital elements,

1 43017U 17073E   24262.58940408  .00017825  00000-0  10483-2 0  9998
2 43017  97.5610 134.8480 0201495 341.4146  17.9788 14.96171026369619
Epoch (UTC): 18 September 2024 14:08:44
Eccentricity: 0.0201495
inclination: 97.5610°
perigee height: 438 km
apogee height: 719 km
right ascension of ascending node: 134.8480°
argument of perigee: 341.4146°
revolutions per day: 14.96171026
mean anomaly at epoch: 17.9788°
orbit number at epoch: 36961

The dashed part of the orbit path shows where the satellite is in the earth's shadow,  

DLR